Galesburg, IL

3:11 AM CDT on October 17, 2017 (GMT -0500)
Galesburg Municipal

Weather History for KGBG - April, 2013

Change the Weather History Date:

Thursday, April 4, 2013

  Actual Average Record
Temperature  
Mean Temperature 42 °F -  
Max Temperature 60 °F 54 °F 80 °F (2005)
Min Temperature 25 °F 34 °F 11 °F (1975)
Degree Days  
Heating Degree Days 22    
Moisture  
Dew Point 22 °F    
Average Humidity 47    
Maximum Humidity 88    
Minimum Humidity 19    
Precipitation  
Precipitation 0.00 in - - ()
Sea Level Pressure  
Sea Level Pressure 30.12 in    
Wind  
Wind Speed 3 mph (WSW)    
Max Wind Speed 10 mph    
Max Gust Speed 16 mph    
Visibility 10 miles    
Events      
Averages and records for this station are not official NWS values.
T = Trace of Precipitation, MM = Missing Value Source: NWS Daily Summary

Daily Weather History Graph

Daily Weather History Graph

Search for Another Location

Airport or City:

Trip Planner

Search our weather history database for the weather conditions in past years. The results will help you decide how hot, cold, wet, or windy it might be!

Date:

Astronomy

Apr. 04, 2013 Rise Set
Actual Time 6:39 AM CDT 7:30 PM CDT
Civil Twilight 6:11 AM CDT 7:57 PM CDT
Nautical Twilight 5:38 AM CDT 8:31 PM CDT
Astronomical Twilight 5:04 AM CDT 9:05 PM CDT
Moon 3:09 AM CDT (4/4) 1:46 PM CDT (4/4)
Length of Visible Light 13h 46m
Length of Day
12h 50m
Waning Crescent, 33% of the Moon is Illuminated
Apr 4
Waning Crescent
Apr 10
New
Apr 18
First Quarter
Apr 25
Full
May 2
Last Quarter

Hourly Weather History & Observations

Time (CDT) Temp. Windchill Dew Point Humidity Pressure Visibility Wind Dir Wind Speed Gust Speed Precip Events Conditions
12:15 AM 35.6 °F 32.8 °F 16.3 °F 46% 30.27 in 10.0 mi ESE 3.5 mph - N/A   Clear
12:35 AM 35.2 °F 32.4 °F 16.3 °F 46% 30.27 in 10.0 mi ESE 3.5 mph - N/A   Clear
12:55 AM 34.5 °F - 16.5 °F 48% 30.26 in 10.0 mi Calm Calm - N/A   Clear
1:15 AM 34.0 °F - 16.7 °F 49% 30.26 in 10.0 mi Calm Calm - N/A   Clear
1:35 AM 33.8 °F 30.8 °F 17.4 °F 51% 30.26 in 10.0 mi ESE 3.5 mph - N/A   Clear
1:55 AM 33.3 °F - 17.6 °F 53% 30.25 in 10.0 mi Calm Calm - N/A   Clear
2:15 AM 33.3 °F - 18.1 °F 54% 30.25 in 10.0 mi Calm Calm - N/A   Clear
2:35 AM 32.0 °F 28.7 °F 18.5 °F 58% 30.24 in 10.0 mi ESE 3.5 mph - N/A   Clear
2:55 AM 30.4 °F - 20.1 °F 66% 30.23 in 10.0 mi Calm Calm - N/A   Clear
3:15 AM 28.6 °F - 20.1 °F 71% 30.23 in 10.0 mi Calm Calm - N/A   Clear
3:35 AM 27.1 °F - 22.3 °F 82% 30.23 in 10.0 mi Calm Calm - N/A   Clear
3:55 AM 27.7 °F - 20.3 °F 74% 30.23 in 10.0 mi Calm Calm - N/A   Clear
4:15 AM 26.4 °F - 23.2 °F 88% 30.22 in 10.0 mi Calm Calm - N/A   Clear
4:35 AM 25.3 °F 21.1 °F 20.5 °F 82% 30.22 in 10.0 mi ESE 3.5 mph - N/A   Clear
4:55 AM 27.3 °F - 19.9 °F 74% 30.21 in 10.0 mi Calm Calm - N/A   Clear
5:15 AM 26.2 °F 22.1 °F 21.0 °F 81% 30.21 in 10.0 mi ESE 3.5 mph - N/A   Clear
5:35 AM 25.7 °F - 22.3 °F 87% 30.21 in 10.0 mi Calm Calm - N/A   Clear
5:55 AM 26.2 °F - 21.2 °F 81% 30.21 in 10.0 mi Calm Calm - N/A   Clear
6:15 AM 26.2 °F - 20.7 °F 79% 30.21 in 10.0 mi Calm Calm - N/A   Clear
6:35 AM 25.5 °F - 22.1 °F 87% 30.20 in 10.0 mi Calm Calm - N/A   Clear
6:55 AM 27.1 °F - 20.7 °F 77% 30.21 in 10.0 mi Calm Calm - N/A   Clear
7:15 AM 27.7 °F - 22.3 °F 80% 30.21 in 10.0 mi Calm Calm - N/A   Clear
7:35 AM 30.2 °F - 23.0 °F 75% 30.21 in 10.0 mi Calm Calm - N/A   Clear
7:55 AM 32.2 °F - 23.7 °F 71% 30.20 in 10.0 mi Calm Calm - N/A   Clear
8:15 AM 35.8 °F 33.0 °F 26.2 °F 68% 30.20 in 10.0 mi ESE 3.5 mph - N/A   Clear
8:35 AM 38.7 °F 36.3 °F 25.9 °F 60% 30.19 in 10.0 mi South 3.5 mph - N/A   Clear
8:55 AM 41.4 °F 36.8 °F 23.5 °F 49% 30.19 in 10.0 mi South 6.9 mph - N/A   Clear
9:15 AM 43.7 °F 39.7 °F 22.1 °F 42% 30.18 in 10.0 mi SSW 6.9 mph - N/A   Clear
9:35 AM 45.3 °F 41.1 °F 21.4 °F 39% 30.18 in 10.0 mi South 8.1 mph - N/A   Clear
9:55 AM 47.3 °F - 19.4 °F 33% 30.17 in 10.0 mi SW 6.9 mph - N/A   Clear
10:15 AM 48.0 °F - 19.6 °F 32% 30.16 in 10.0 mi SSW 6.9 mph - N/A   Clear
10:35 AM 49.5 °F - 19.8 °F 31% 30.16 in 10.0 mi South 4.6 mph - N/A   Clear
10:55 AM 50.2 °F - 20.7 °F 31% 30.16 in 10.0 mi West 8.1 mph - N/A   Clear
11:15 AM 50.0 °F - 21.2 °F 32% 30.15 in 10.0 mi West 8.1 mph - N/A   Clear
11:35 AM 51.4 °F - 21.2 °F 31% 30.14 in 10.0 mi SW 4.6 mph - N/A   Clear
11:55 AM 52.2 °F - 21.4 °F 30% 30.14 in 10.0 mi WSW 3.5 mph - N/A   Clear
12:15 PM 52.5 °F - 20.7 °F 29% 30.12 in 10.0 mi SSW 3.5 mph - N/A   Clear
12:35 PM 53.8 °F - 21.6 °F 28% 30.12 in 10.0 mi West 9.2 mph - N/A   Clear
12:55 PM 53.2 °F - 19.4 °F 27% 30.11 in 10.0 mi North 4.6 mph - N/A   Clear
1:15 PM 54.7 °F - 19.9 °F 26% 30.10 in 10.0 mi WSW 4.6 mph - N/A   Clear
1:35 PM 55.6 °F - 18.5 °F 23% 30.09 in 10.0 mi Calm Calm - N/A   Clear
1:55 PM 55.4 °F - 19.6 °F 25% 30.08 in 10.0 mi South 5.8 mph - N/A   Clear
2:15 PM 56.8 °F - 19.4 °F 23% 30.08 in 10.0 mi WSW 8.1 mph - N/A   Clear
2:35 PM 57.7 °F - 20.5 °F 24% 30.06 in 10.0 mi WSW 8.1 mph - N/A   Clear
2:55 PM 58.1 °F - 20.1 °F 23% 30.05 in 10.0 mi West 5.8 mph - N/A   Clear
3:15 PM 58.3 °F - 19.2 °F 22% 30.04 in 10.0 mi West 8.1 mph - N/A   Clear
3:35 PM 59.2 °F - 18.9 °F 21% 30.04 in 10.0 mi West 8.1 mph 16.1 mph N/A   Clear
3:55 PM 59.9 °F - 17.8 °F 19% 30.02 in 10.0 mi WNW 9.2 mph - N/A   Clear
4:15 PM 60.1 °F - 17.6 °F 19% 30.02 in 10.0 mi WSW 9.2 mph - N/A   Clear
4:35 PM 59.9 °F - 17.1 °F 19% 30.02 in 10.0 mi West 6.9 mph - N/A   Clear
4:55 PM 59.9 °F - 18.3 °F 20% 30.02 in 10.0 mi West 8.1 mph - N/A   Clear
5:15 PM 59.5 °F - 19.6 °F 21% 30.02 in 10.0 mi West 8.1 mph - N/A   Clear
5:35 PM 59.9 °F - 21.2 °F 22% 30.02 in 10.0 mi WNW 9.2 mph - N/A   Clear
5:55 PM 59.0 °F - 21.0 °F 23% 30.02 in 10.0 mi WNW 5.8 mph - N/A   Clear
6:15 PM 58.5 °F - 21.6 °F 24% 30.02 in 10.0 mi West 6.9 mph - N/A   Clear
6:35 PM 57.9 °F - 23.0 °F 26% 30.02 in 10.0 mi WNW 10.4 mph - N/A   Clear
6:55 PM 56.3 °F - 24.3 °F 29% 30.02 in 10.0 mi West 5.8 mph - N/A   Clear
7:15 PM 54.7 °F - 23.9 °F 30% 30.01 in 10.0 mi West 3.5 mph - N/A   Clear
7:35 PM 52.2 °F - 23.9 °F 33% 30.01 in 10.0 mi West 3.5 mph - N/A   Clear
7:55 PM 50.2 °F - 23.7 °F 36% 30.00 in 10.0 mi WSW 3.5 mph - N/A   Clear
8:15 PM 49.6 °F - 23.9 °F 37% 30.01 in 10.0 mi Calm Calm - N/A   Clear
8:35 PM 49.1 °F - 23.9 °F 37% 30.01 in 10.0 mi Calm Calm - N/A   Clear
8:55 PM 44.8 °F - 28.8 °F 53% 30.02 in 10.0 mi Calm Calm - N/A   Clear
9:15 PM 44.1 °F - 25.5 °F 48% 30.02 in 10.0 mi Calm Calm - N/A   Clear
9:35 PM 43.3 °F 41.7 °F 25.0 °F 48% 30.02 in 10.0 mi SW 3.5 mph - N/A   Clear
9:55 PM 42.4 °F 40.7 °F 26.6 °F 54% 30.02 in 10.0 mi WSW 3.5 mph - N/A   Clear
10:15 PM 40.8 °F 37.8 °F 25.7 °F 55% 30.03 in 10.0 mi WNW 4.6 mph - N/A   Clear
10:35 PM 43.0 °F 38.8 °F 27.1 °F 54% 30.04 in 10.0 mi NW 6.9 mph - N/A   Clear
10:55 PM 43.3 °F 39.2 °F 28.8 °F 56% 30.04 in 10.0 mi NW 6.9 mph - N/A   Clear
11:15 PM 43.3 °F 40.7 °F 31.1 °F 62% 30.04 in 10.0 mi NW 4.6 mph - N/A   Clear
11:35 PM 41.5 °F 37.8 °F 30.7 °F 65% 30.04 in 10.0 mi NW 5.8 mph - N/A   Clear
11:55 PM 40.1 °F 36.1 °F 30.2 °F 68% 30.04 in 10.0 mi NW 5.8 mph - N/A   Clear